Location: D�nning
(49.2479°N, 12.8491°E)
Time: 06:18:03
(UTC+00:00)

SL-16 R/B - Pass Details

Date: 18 September 2020
Orbit: 842 x 847 km, 71.0° (Epoch: 27 October)

Event Time Altitude Azimuth Distance (km) Brightness Sun altitude
Rises 17:35:58 0° 324° (NW) 3,418 6.1 -4.3°
Reaches altitude 10° 17:38:40 10° 315° (NW) 2,477 5.6 -4.8°
Maximum altitude 17:43:33 31° 255° (WSW) 1,454 4.3 -5.5°
Drops below altitude 10° 17:48:26 10° 195° (SSW) 2,458 4.7 -6.3°
Sets 17:51:06 0° 186° (S) 3,387 5.3 -6.8°
